| 
				
				
				
					
						
					 | 
				
				
				
					
					
					Asteroid 2011 UT63
					
					
					
					
						
					
					
						
							(Preview)
						
						
						
						
							
						
							
								Orbital elements:
2011 UT63                                                Earth MOID = 0.0318 AU
Epoch 2011 Aug. 27.0 TT = JDT 2455800.5                 MPC
M 335.19219              (2000.0)            P               Q
n   0.57326889     Peri.  167.07914     +0.96301753     -0.21095676
a   1.4351495      Node   206.94236     +0.20236362     +0.97701651
e   0.2874159      Incl.   21.71144     +0.17789377     +0.03059387
P   1.72           H   24....                                    
							 
							
						 
						
					
				 | 
				
					
						Blobrana
					 | 
				
				
					
						0
					 | 
				
				
				
					
						
					 | 
				
				
					
						
					 | 
				
			
		
			
			
				
				
					
						 
					 | 
				
				
				
					
						
					 | 
				
				
				
					
					
					Asteroid 2011 UU63
					
					
					
					
						
					
					
						
							(Preview)
						
						
						
						
							
						
							
								Orbital elements:
2011 UU63                                                Earth MOID = 0.0255 AU
Epoch 2011 Aug. 27.0 TT = JDT 2455800.5                 MPC
M 306.41518              (2000.0)            P               Q
n   0.47691962     Peri.  261.23585     -0.31650286     -0.94450656
a   1.6224547      Node   207.71725     +0.92759251     -0.28876543
e   0.5383792      Incl.   10.89865     +0.19848946     -0.15659463
P   2.07           H   24....                                    
							 
							
						 
						
					
				 | 
				
					
						Blobrana
					 | 
				
				
					
						0
					 | 
				
				
				
					
						
					 | 
				
				
					
						
					 | 
				
			
		
			
			
				
				
					
						 
					 | 
				
				
				
					
						
					 | 
				
				
				
					
					
					Asteroid 2011 UW63
					
					
					
					
						
					
					
						
							(Preview)
						
						
						
						
							
						
							
								Orbital elements:
2011 UW63                                                Earth MOID = 0.0766 AU
Epoch 2011 Aug. 27.0 TT = JDT 2455800.5                 MPC
M 329.74059              (2000.0)            P               Q
n   0.42513846     Peri.   19.28542     +0.69545897     -0.68799497
a   1.7516572      Node    27.91289     +0.58726782     +0.37790914
e   0.3967079      Incl.   26.29310     +0.41406923     +0.61955436
P   2.32           H   22.4           G...                          
							 
							
						 
						
					
				 | 
				
					
						Blobrana
					 | 
				
				
					
						0
					 | 
				
				
				
					
						
					 | 
				
				
					
						
					 | 
				
			
		
			
			
				
				
					
						 
					 | 
				
				
				
					
						
					 | 
				
				
				
					
					
					Asteroid 2011 UC64
					
					
					
					
						
					
					
						
							(Preview)
						
						
						
						
							
						
							
								Orbital elements:
2011 UC64                                                Earth MOID = 0.0016 AU
Epoch 2011 Aug. 27.0 TT = JDT 2455800.5                 MPC
M 251.89465              (2000.0)            P               Q
n   0.89797929     Peri.  288.76345     -0.76942912     -0.63777350
a   1.0640413      Node   211.63849     +0.60827244     -0.71492549
e   0.4624901      Incl.    3.82389     +0.19489348     -0.28657721
P   1.10           H   27.8...                                     
							 
							
						 
						
					
				 | 
				
					
						Blobrana
					 | 
				
				
					
						0
					 | 
				
				
				
					
						
					 | 
				
				
					
						
					 | 
				
			
		
			
			
				
				
					
						 
					 | 
				
				
				
					
						 
					 | 
				
				
				
					
					
					Asteroid 2005 GD60
					
					
					
					
						
					
					
						
							(Preview)
						
						
						
						
							
						
							
								Orbital elements:
2005 GD60                                           PHA, Earth MOID = 0.0328 AU
Epoch 2011 Aug. 27.0 TT = JDT 2455800.5                 MPC
M   3.70406              (2000.0)            P               Q
n   0.64306048     Peri.   99.95644     +0.48163446     +0.87455733
a   1.3293362      Node   199.15046     -0.85624237     +0.45588973
e   0.3737966      Incl.    9.89468     -0.18675454     +0.16526958
P   1.53           H   21.... 
							 
							
						 
						
					
				 | 
				
					
						Blobrana
					 | 
				
				
					
						0
					 | 
				
				
				
					
						
					 | 
				
				
					
						
					 | 
				
			
		
			
			
				
				
					
						 
					 | 
				
				
				
					
						 
					 | 
				
				
				
					
					
					Asteroid 2011 UH20
					
					
					
					
						
					
					
						
							(Preview)
						
						
						
						
							
						
							
								Orbital elements:
2011 UH20                                           PHA, Earth MOID = 0.0084 AU
Epoch 2011 Aug. 27.0 TT = JDT 2455800.5                 MPC
M  21.05229              (2000.0)            P               Q
n   0.72435876     Peri.  256.87210     +0.08113482     +0.97311973
a   1.2279110      Node    21.68026     -0.52530986     +0.22552494
e   0.3350353      Incl.   35.69215     -0.84703405     -0.04665288
P   1.36           H   2... 
							 
							
						 
						
					
				 | 
				
					
						Blobrana
					 | 
				
				
					
						0
					 | 
				
				
				
					
						
					 | 
				
				
					
						
					 | 
				
			
		
			
			
				
				
					
						 
					 | 
				
				
				
					
						
					 | 
				
				
				
					
					
					Asteroid 2011 UJ20
					
					
					
					
						
					
					
						
							(Preview)
						
						
						
						
							
						
							
								Orbital elements:
2011 UJ20                                                Earth MOID = 0.1652 AU
Epoch 2011 Aug. 27.0 TT = JDT 2455800.5                 MPC
M 353.69019              (2000.0)            P               Q
n   0.53661884     Peri.  141.15541     +0.94652770     +0.31768390
a   1.4997727      Node   200.53506     -0.32125365     +0.91204392
e   0.2353359      Incl.    9.22495     -0.02968852     +0.25933150
P   1.84           H   23.3... 
							 
							
						 
						
					
				 | 
				
					
						Blobrana
					 | 
				
				
					
						0
					 | 
				
				
				
					
						
					 | 
				
				
					
						
					 | 
				
			
		
			
			
				
				
					
						 
					 | 
				
				
				
					
						
					 | 
				
				
				
					
					
					Asteroid 2011 UN20
					
					
					
					
						
					
					
						
							(Preview)
						
						
						
						
							
						
							
								Orbital elements:
2011 UN20                                                Earth MOID = 0.0990 AU
Epoch 2011 Aug. 27.0 TT = JDT 2455800.5                 MPC
M 347.49385              (2000.0)            P               Q
n   0.50022019     Peri.  150.75382     +0.99358683     -0.00215233
a   1.5716719      Node   210.01651     -0.02154278     +0.97790147
e   0.3169544      Incl.   13.06108     +0.11100055     +0.20905520
P   1.97           H   22.... 
							 
							
						 
						
					
				 | 
				
					
						Blobrana
					 | 
				
				
					
						0
					 | 
				
				
				
					
						
					 | 
				
				
					
						
					 | 
				
			
		
			
			
				
				
					
						 
					 | 
				
				
				
					
						
					 | 
				
				
				
					
					
					Asteroid 2011 UP20
					
					
					
					
						
					
					
						
							(Preview)
						
						
						
						
							
						
							
								Orbital elements:
2011 UP20                                                Earth MOID = 0.1816 AU
Epoch 2011 Aug. 27.0 TT = JDT 2455800.5                 MPC
M   6.16357              (2000.0)            P               Q
n   0.38596259     Peri.  285.84182     +0.79148917     +0.60315783
a   1.8682683      Node    37.22064     -0.47947887     +0.71293967
e   0.4096395      Incl.    9.39288     -0.37900515     +0.35765579
P   2.55           H   22.6           G   0.... 
							 
							
						 
						
					
				 | 
				
					
						Blobrana
					 | 
				
				
					
						0
					 | 
				
				
				
					
						
					 | 
				
				
					
						
					 | 
				
			
		
			
			
				
				
					
						 
					 | 
				
				
				
					
						
					 | 
				
				
				
					
					
					Asteroid 2011 UQ20
					
					
					
					
						
					
					
						
							(Preview)
						
						
						
						
							
						
							
								Orbital elements:
2011 UQ20                                                Earth MOID = 0.0780 AU
Epoch 2011 Aug. 27.0 TT = JDT 2455800.5                 MPC
M 352.89457              (2000.0)            P               Q
n   0.51080911     Peri.  145.36460     +0.97774938     +0.20903111
a   1.5498760      Node   202.58941     -0.20136408     +0.91159499
e   0.3031543      Incl.    2.63618     -0.05881026     +0.35397819
P   1.93           H   24.3... 
							 
							
						 
						
					
				 | 
				
					
						Blobrana
					 | 
				
				
					
						0
					 | 
				
				
				
					
						
					 | 
				
				
					
						
					 | 
				
			
		
			
			
				
				
					
						 
					 | 
				
				
				
					
						 
					 | 
				
				
				
					
					
					Asteroid 2011 UT20
					
					
					
					
						
					
					
						
							(Preview)
						
						
						
						
							
						
							
								Orbital elements:
2011 UT20                                           PHA, Earth MOID = 0.0321 AU
Epoch 2011 Aug. 27.0 TT = JDT 2455800.5                 MPC
M 233.37521              (2000.0)            P               Q
n   0.74806582     Peri.  246.89268     -0.91366725     -0.38957220
a   1.2018294      Node   270.01465     +0.40227974     -0.82586337
e   0.4480450      Incl.    6.65873     +0.05816491     -0.40765573
P   1.32           H... 
							 
							
						 
						
					
				 | 
				
					
						Blobrana
					 | 
				
				
					
